Vertical_Velocity
-4 -2 -2 -2 2 1 5 1 3 0 2 1 -2 1 3 1 -1 5 2 1 -1 -1
-4 -5 -1 -1 -2 3 5 3 4 5 2 3 -2 4 1 1 -1 2 9 3 -2 -1
-2 -4 -4 -2 -0 2 4 8 4 5 -0 -0 1 3 -2 2 4 3 4 1 2 -3
-1 -1 -5 -4 -0 -0 4 3 6 3 1 4 2 0 1 2 4 3 2 4 1 1
-1 0 -1 -6 -4 -0 2 4 4 6 4 -1 2 -1 2 3 1 3 -0 5 4 -1
-2 -1 -0 -2 -5 -2 1 4 4 11 6 1 3 4 3 1 10 -3 4 1 1 8
-1 -2 -0 0 -2 -4 1 1 9 5 10 18 4 12 10 -1 6 3 2 1 0 2
-2 -1 -1 -1 -1 -4 -0 -2 0 3 4 11 18 8 4 3 3 11 1 4 -3 1
-2 -1 -1 1 -1 -1 -4 -0 -1 4 -3 2 0 14 9 9 3 5 6 -1 2 4
-1 -0 -2 -2 1 1 -2 1 -3 9 9 -4 8 9 10 2 -4 3 4 6 -0 3
-2 -0 0 -2 -2 -2 1 4 1 2 4 1 2 6 20 6 19 14 7 -1 11 23
1 -1 0 -1 -2 1 1 4 3 2 6 11 7 8 10 11 19 0 11 20 14 0
0 1 -0 0 -2 -2 1 4 -2 -7 -1 -1 1 2 7 8 17 9 -4 3 4 -2
0 -0 1 -1 3 -1 -0 2 4 3 7 6 6 6 6 10 8 14 3 10 5 6
Height
5467 5468 5469 5473 5484 5496 5510 5524 5543 5559 5576 5592 5607 5619 5632 5646 5656 5663 5672 5679 5686 5693
5454 5453 5454 5455 5461 5471 5484 5500 5517 5536 5551 5568 5585 5600 5614 5627 5639 5650 5658 5666 5674 5681
5443 5441 5441 5443 5444 5451 5461 5475 5492 5510 5528 5546 5564 5580 5593 5608 5622 5634 5644 5653 5661 5669
5433 5430 5429 5430 5432 5434 5442 5454 5468 5487 5506 5524 5542 5560 5575 5588 5604 5618 5627 5639 5647 5656
5422 5420 5419 5417 5419 5421 5427 5439 5453 5468 5484 5503 5522 5539 5558 5573 5586 5600 5611 5623 5633 5643
5410 5410 5409 5407 5407 5409 5414 5423 5438 5451 5467 5483 5502 5523 5539 5556 5571 5581 5595 5608 5618 5631
5398 5399 5399 5398 5396 5398 5402 5409 5422 5435 5448 5462 5482 5503 5520 5538 5554 5564 5577 5592 5604 5615
5386 5388 5389 5388 5386 5387 5390 5398 5407 5420 5431 5447 5465 5485 5501 5519 5535 5547 5561 5576 5589 5602
5375 5377 5379 5379 5377 5376 5380 5386 5395 5408 5420 5432 5447 5467 5482 5500 5517 5532 5547 5562 5575 5588
5365 5366 5368 5369 5369 5368 5370 5375 5385 5396 5408 5419 5433 5449 5467 5481 5502 5518 5533 5547 5560 5572
5356 5356 5357 5359 5359 5359 5363 5366 5373 5386 5398 5408 5419 5433 5449 5468 5487 5503 5516 5529 5545 5557
5348 5347 5348 5349 5350 5351 5353 5355 5362 5374 5385 5396 5406 5420 5432 5449 5465 5482 5497 5510 5523 5538
5340 5340 5339 5340 5340 5342 5344 5348 5353 5362 5372 5383 5395 5406 5419 5434 5449 5464 5483 5496 5507 5522
5333 5332 5332 5333 5333 5332 5335 5340 5345 5352 5362 5373 5384 5394 5406 5420 5435 5449 5465 5478 5492 5508